CAPE
0 0 0 0 0 0 0 0 0 0 0 0 0 0 0 0 0 0 0 0 0 0 0 0 0 0 0 0 0 0 0 0 0 0 0 0 0 0 0 0 0 0 2 3
0 0 0 0 0 0 0 0 0 0 0 0 0 0 0 0 0 0 0 0 0 0 0 0 0 0 0 0 0 0 0 0 0 0 0 0 0 0 0 0 0 0 0 0
0 0 0 0 0 0 0 0 0 0 0 0 0 0 0 0 0 0 0 0 0 0 0 0 0 0 0 0 0 0 0 0 0 0 0 0 0 0 0 0 0 0 0 0
0 0 0 0 0 0 0 0 0 0 0 0 0 0 0 0 0 0 0 0 0 0 0 0 0 0 0 0 0 0 0 0 0 0 0 0 0 0 0 0 0 0 0 1
0 0 0 0 0 0 0 0 0 0 0 0 0 0 0 0 0 0 0 0 0 0 0 0 0 0 0 0 0 0 0 0 0 0 0 0 0 0 0 0 0 0 0 0
1 0 0 0 0 0 0 0 0 0 0 0 0 0 0 0 0 0 0 0 0 0 0 0 0 0 0 0 0 0 0 0 0 0 0 0 0 0 0 0 0 0 0 0
0 1 0 0 0 0 0 0 0 0 0 0 0 0 0 0 0 0 0 0 0 0 0 0 0 0 0 0 0 0 0 0 0 0 0 0 0 0 0 0 0 0 0 0
0 0 0 0 0 0 0 0 0 0 0 0 0 0 0 0 0 0 0 0 0 0 0 0 0 0 0 0 0 0 0 0 0 0 0 0 0 0 0 0 0 0 0 0
0 0 0 0 0 0 0 0 0 0 0 0 0 0 0 0 0 0 0 0 0 0 0 0 0 0 0 0 0 0 0 0 0 0 0 0 0 0 0 0 0 0 0 0
0 0 1 0 0 0 0 0 0 0 0 0 0 0 0 0 0 0 0 0 0 0 0 0 0 0 0 0 0 0 0 0 0 0 0 0 0 0 0 0 0 0 0 0
0 6 1 0 5 0 0 0 0 0 0 0 0 0 0 0 0 0 0 0 0 0 0 0 0 0 0 0 0 0 0 0 0 0 0 0 0 0 0 0 0 0 0 0
0 0 9 2 1 0 0 0 3 0 0 0 0 0 0 0 0 0 0 0 0 0 0 0 0 0 0 0 0 0 0 0 0 0 0 0 0 0 0 0 0 0 0 0
2 0 0 1 8 15 0 0 0 0 0 0 0 1 0 0 1 2 0 0 0 0 0 0 0 0 0 0 0 0 0 0 0 0 0 0 0 0 0 0 0 0 0 0
0 0 0 1 1 1 0 0 0 0 0 0 0 0 1 1 1 2 2 0 0 0 0 0 0 0 0 0 0 0 0 0 0 0 0 0 0 0 0 0 0 0 0 0
0 0 0 0 0 0 0 0 0 0 0 0 0 0 0 4 2 0 1 0 0 0 0 0 0 0 0 0 0 0 0 0 0 0 0 0 0 1 1 0 0 0 2 0
0 0 0 0 0 0 0 0 0 0 0 0 0 0 0 0 1 1 0 0 1 1 0 0 0 0 0 0 0 0 0 0 0 0 0 1 0 1 1 1 0 0 0 0
0 0 0 0 0 0 0 0 0 0 0 0 0 0 0 0 0 1 1 0 0 2 3 4 3 1 0 0 0 0 1 1 2 1 0 2 1 1 1 1 0 0 0 0
0 0 0 0 0 0 0 0 0 0 0 0 0 0 0 0 0 0 0 0 1 1 2 2 2 3 1 1 0 0 1 2 1 0 0 3 1 1 2 1 0 0 0 0
1 0 0 0 0 0 0 0 0 0 0 0 0 0 0 0 0 0 0 0 1 0 0 0 1 1 1 0 1 2 2 2 1 0 1 2 1 1 1 2 0 0 0 0
0 0 0 0 0 0 0 0 0 0 0 0 0 0 0 0 0 0 0 0 0 1 2 1 2 0 0 1 0 2 2 0 1 1 2 1 1 1 1 1 0 0 0 1
0 0 0 0 0 0 0 0 0 0 0 0 0 0 0 0 0 0 0 0 0 0 0 1 2 1 1 1 2 0 1 1 1 0 1 1 1 1 1 1 2 2 2 0
0 0 0 0 0 0 0 0 0 0 0 0 0 0 0 0 0 0 0 0 0 0 1 1 1 0 1 1 0 0 0 1 0 0 0 0 0 1 2 2 1 2 1 0
0 0 0 0 0 0 0 0 0 0 0 0 0 0 0 0 0 0 0 0 0 0 1 0 1 1 1 0 0 0 0 0 0 0 0 1 1 2 0 0 0 0 0 0
0 0 0 0 0 0 0 0 0 0 0 0 0 0 0 0 0 0 0 0 0 0 1 1 1 2 2 1 1 0 0 0 0 0 0 0 0 0 1 1 0 0 0 0
0 0 0 0 0 0 0 0 0 0 0 0 0 0 0 0 0 0 0 0 0 1 0 0 2 2 0 0 0 0 0 0 0 0 0 0 1 1 0 0 0 0 0 0
0 0 0 0 0 0 0 0 0 0 0 0 0 0 0 0 0 0 0 0 1 0 0 0 1 0 0 0 0 0 1 1 1 0 1 1 0 0 0 0 0 0 0 0
0 0 0 0 0 0 0 0 0 0 0 0 0 0 0 0 0 0 0 1 1 0 0 0 1 0 0 0 0 0 1 1 2 1 1 0 0 0 0 0 0 0 0 0
CIN
-0 -0 -0 -0 -0 -0 -0 -0 -0 -0 -0 -0 -0 -0 -0 -0 -0 -0 -0 -0 -0 -0 -0 -0 -0 -0 -0 -0 -0 -0 -0 -0 -0 -0 -0 -0 -0 -0 -0 -0 -0 -0 -0 -0
-0 -0 -0 -0 -0 -0 -0 -0 -0 -0 -0 -0 -0 -0 -0 -0 -0 -0 -0 -0 -0 -0 -0 -0 -0 -0 -0 -0 -0 -0 -0 -0 -0 -0 -0 -0 -0 -0 -0 -0 -0 -0 -0 -0
-0 -0 -0 -0 -0 -0 -0 -0 -0 -0 -0 -0 -0 -0 -0 -0 -0 -0 -0 -0 -0 -0 -0 -0 -0 -0 -0 -0 -0 -0 -0 -0 -0 -0 -0 -0 -0 -0 -0 -0 -0 -0 -0 -0
-0 -0 -0 -0 -0 -0 -0 -0 -0 -0 -0 -0 -0 -0 -0 -0 -0 -0 -0 -0 -0 -0 -0 -0 -0 -0 -0 -0 -0 -0 -0 -0 -0 -0 -0 -0 -0 -0 -0 -0 -0 -0 -0 -0
-0 -0 -0 -0 -0 -0 -0 -0 -0 -0 -0 -0 -0 -0 -0 -0 -0 -0 -0 -0 -0 -0 -0 -0 -0 -0 -0 -0 -0 -0 -0 -0 -0 -0 -0 -0 -0 -0 -0 -0 -0 -0 -0 -0
-0 -0 -0 -0 -0 -0 -0 -0 -0 -0 -0 -0 -0 -0 -0 -0 -0 -0 -0 -0 -0 -0 -0 -0 -0 -0 -0 -0 -0 -0 -0 -0 -0 -0 -0 -0 -0 -0 -0 -0 -0 -0 -0 -0
-0 -0 -0 -0 -0 -0 -0 -0 -0 -0 -0 -0 -0 -0 -0 -0 -0 -0 -0 -0 -0 -0 -0 -0 -0 -0 -0 -0 -0 -0 -0 -0 -0 -0 -0 -0 -0 -0 -0 -0 -0 -0 -0 -0
-0 -0 -0 -0 -0 -0 -0 -0 -0 -0 -0 -0 -0 -0 -0 -0 -0 -0 -0 -0 -0 -0 -0 -0 -0 -0 -0 -0 -0 -0 -0 -0 -0 -0 -0 -0 -0 -0 -0 -0 -0 -0 -0 -0
-0 -0 -0 -0 -0 -0 -0 -0 -0 -0 -0 -0 -0 -0 -0 -0 -0 -0 -0 -0 -0 -0 -0 -0 -0 -0 -0 -0 -0 -0 -0 -0 -0 -0 -0 -0 -0 -0 -0 -0 -0 -0 -0 -0
-0 -0 -0 -0 -0 -0 -0 -3 -0 -0 -0 -0 -0 -0 -0 -0 -0 -0 -0 -0 -0 -0 -0 -0 -0 -0 -0 -0 -0 -0 -0 -0 -0 -0 -0 -0 -0 -0 -0 -0 -0 -0 -0 -0
-0 -0 -3 -0 -5 -0 -0 -0 -0 -0 -0 -0 -0 -0 -0 -0 -0 -0 -0 -0 -0 -0 -0 -0 -0 -0 -0 -0 -0 -0 -0 -0 -0 -0 -0 -0 -0 -0 -0 -0 -0 -0 -0 -0
-0 -0 -3 -3 -1 -0 -0 -1 -1 -0 -0 -0 -0 -0 -0 -0 -0 -0 -0 -0 -0 -0 -0 -0 -0 -0 -0 -0 -0 -0 -0 -0 -0 -0 -0 -0 -0 -0 -0 -0 -0 -0 -0 -0
-24 -0 -0 -1 -2 -1 -0 -0 -0 -0 -0 -0 -0 -0 -0 -0 -0 -0 -0 -0 -0 -0 -0 -0 -0 -0 -0 -0 -0 -0 -0 -0 -0 -0 -0 -0 -0 -0 -0 -0 -0 -0 -0 -0
-0 -0 -0 -6 -0 -0 -0 -0 -0 -0 -0 -0 -0 -0 -0 -0 -0 -0 -0 -0 -0 -0 -0 -0 -0 -0 -0 -0 -0 -0 -0 -0 -0 -0 -0 -0 -0 -0 -0 -0 -0 -0 -0 -0
-0 -0 -0 -0 -0 -0 -0 -0 -0 -0 -0 -0 -0 -0 -0 -0 -0 -0 -0 -0 -0 -0 -0 -0 -0 -0 -0 -0 -0 -0 -0 -0 -0 -0 -0 -0 -0 -0 -0 -0 -0 -0 -0 -0
-0 -0 -0 -0 -0 -0 -0 -0 -0 -0 -0 -0 -0 -0 -0 -0 -0 -0 -0 -0 -0 -0 -0 -0 -0 -0 -0 -0 -0 -0 -0 -0 -0 -0 -0 -0 -0 -0 -0 -0 -0 -0 -0 -0
-0 -0 -0 -0 -0 -0 -0 -0 -0 -0 -0 -0 -0 -0 -0 -0 -0 -0 -0 -0 -0 -0 -0 -0 -0 -0 -0 -0 -0 -0 -0 -0 -0 -0 -0 -0 -0 -0 -0 -0 -0 -0 -0 -0
-0 -0 -0 -0 -0 -0 -0 -0 -0 -0 -0 -0 -0 -0 -0 -0 -0 -0 -0 -0 -0 -0 -0 -0 -0 -0 -0 -0 -0 -0 -0 -0 -0 -0 -0 -0 -0 -0 -0 -0 -0 -0 -0 -0
-43 -0 -0 -0 -0 -0 -0 -0 -0 -0 -0 -0 -0 -0 -0 -0 -0 -0 -0 -0 -0 -0 -0 -0 -0 -0 -0 -0 -0 -0 -0 -0 -0 -0 -0 -0 -0 -0 -0 -0 -0 -0 -0 -0
-0 -0 -0 -0 -0 -0 -0 -0 -0 -0 -0 -0 -0 -0 -0 -0 -0 -0 -0 -0 -0 -0 -0 -0 -0 -0 -0 -0 -0 -0 -0 -0 -0 -0 -0 -0 -0 -0 -0 -0 -0 -0 -0 -0
-0 -0 -0 -0 -0 -0 -0 -0 -0 -0 -0 -0 -0 -0 -0 -0 -0 -0 -0 -0 -0 -0 -0 -0 -0 -0 -0 -0 -0 -0 -0 -0 -0 -0 -0 -0 -0 -0 -0 -0 -0 -0 -0 -0
-0 -0 -0 -0 -0 -0 -0 -0 -0 -0 -0 -0 -0 -0 -0 -0 -0 -0 -0 -0 -0 -0 -0 -0 -0 -0 -0 -0 -0 -0 -0 -0 -0 -0 -0 -0 -0 -0 -0 -0 -0 -0 -0 -0
-0 -0 -0 -0 -0 -0 -0 -0 -0 -0 -0 -0 -0 -0 -0 -0 -0 -0 -0 -0 -0 -0 -0 -0 -0 -0 -0 -0 -0 -0 -0 -0 -0 -0 -0 -0 -0 -0 -0 -0 -0 -0 -0 -0
-0 -0 -0 -0 -0 -0 -0 -0 -0 -0 -0 -0 -0 -0 -0 -0 -0 -0 -0 -0 -0 -0 -0 -0 -0 -0 -0 -0 -0 -0 -0 -0 -0 -0 -0 -0 -0 -0 -0 -0 -0 -0 -0 -0
-0 -0 -0 -0 -0 -0 -0 -0 -0 -0 -0 -0 -0 -0 -0 -0 -0 -0 -0 -0 -0 -0 -0 -0 -0 -0 -0 -0 -0 -0 -0 -0 -0 -0 -0 -0 -0 -0 -0 -0 -0 -0 -0 -0
-0 -0 -0 -0 -0 -0 -0 -0 -0 -0 -0 -0 -0 -0 -0 -0 -0 -0 -0 -0 -0 -0 -0 -0 -0 -0 -0 -0 -0 -0 -0 -0 -0 -0 -0 -0 -0 -0 -0 -0 -0 -0 -0 -0
-0 -0 -0 -0 -0 -0 -0 -0 -0 -0 -0 -0 -0 -0 -0 -0 -0 -0 -0 -0 -0 -0 -0 -0 -0 -0 -0 -0 -0 -0 -0 -0 -0 -0 -0 -0 -0 -0 -0 -0 -0 -0 -0 -0
Wind_Speed
30 32 32 30 28 26 22 22 25 24 27 29 35 28 27 28 29 32 35 35 33 33 32 31 30 28 27 25 21 13 10 9 12 23 26 26 24 20 20 21 22 25 29 30
42 37 32 34 33 30 25 23 22 24 29 25 23 25 25 28 33 34 34 37 38 37 35 34 33 32 31 31 26 19 16 17 17 19 22 22 21 20 19 20 21 22 26 29
44 36 42 43 31 22 21 23 19 24 23 23 26 29 30 33 38 36 33 38 40 41 40 39 37 35 33 31 27 24 23 23 22 22 22 22 21 21 19 20 20 19 22 26
44 41 43 30 26 31 27 24 19 27 28 28 30 30 29 34 34 36 36 40 42 43 44 41 39 37 34 31 28 26 26 26 25 24 24 22 21 20 20 20 19 18 20 23
37 38 43 47 32 28 29 34 28 26 25 27 33 32 35 35 36 39 44 45 45 47 46 44 42 40 36 34 30 27 28 26 26 25 24 23 22 21 20 19 19 19 18 19
28 38 41 31 25 26 29 46 23 22 32 37 41 50 46 43 46 48 47 46 46 47 46 45 45 41 39 38 34 31 28 29 25 25 24 23 22 20 19 18 19 18 18 19
33 38 36 34 32 27 36 32 32 37 42 45 47 46 50 50 52 49 48 48 47 46 46 45 44 42 41 41 39 36 32 26 26 25 25 23 21 19 18 18 17 17 17 18
33 40 50 26 23 29 36 45 49 49 47 48 49 53 53 53 53 52 53 52 49 49 48 47 45 42 42 43 44 40 35 31 24 26 26 24 22 19 18 18 17 17 16 17
39 42 33 36 44 46 45 47 46 43 47 53 57 57 55 56 56 54 52 50 49 49 50 47 44 42 43 45 43 41 38 35 28 24 26 25 23 22 18 19 18 17 17 17
44 42 42 39 44 47 48 44 51 53 55 56 54 53 56 54 53 52 51 50 48 48 48 47 45 45 45 45 45 40 40 37 34 28 24 28 26 24 22 19 19 18 18 18
51 48 49 52 45 53 53 54 55 53 52 50 52 55 53 52 50 49 49 49 48 48 47 48 47 46 47 45 43 42 40 38 34 32 28 26 31 27 25 23 20 19 18 17
58 49 48 52 53 50 55 52 48 50 52 50 48 51 49 48 48 48 51 52 51 49 47 47 48 47 47 44 41 40 41 39 36 33 32 29 32 31 29 26 23 22 20 17
44 49 54 52 51 45 45 43 44 43 42 45 44 43 42 43 44 49 49 50 49 48 48 50 50 50 46 43 40 40 39 37 36 34 31 30 30 34 31 27 25 23 21 19
46 41 44 40 41 40 39 40 40 40 40 41 42 40 40 40 42 45 46 49 48 47 46 47 48 48 44 42 40 39 37 35 33 32 32 29 28 30 32 28 26 24 21 19
35 36 36 35 35 37 36 38 40 40 41 41 41 40 39 40 40 44 46 47 47 47 46 46 46 45 42 40 39 37 35 34 31 31 31 28 28 27 30 30 27 23 19 18
28 28 29 31 32 33 34 34 35 38 38 40 41 42 42 40 41 43 45 46 47 48 47 45 44 42 40 38 36 35 34 33 30 29 31 28 27 26 25 28 27 24 21 19
23 27 29 32 34 36 37 36 37 39 39 40 40 42 43 43 43 44 45 45 44 46 43 41 42 41 40 38 36 34 34 33 30 31 29 27 28 26 26 23 24 25 23 17
21 26 32 36 39 41 43 43 41 41 41 41 42 43 43 44 45 46 46 46 45 46 41 40 41 40 39 37 36 34 33 32 29 30 30 27 25 23 24 22 20 19 22 19
28 30 34 39 41 44 46 47 47 44 44 43 43 45 45 45 45 46 44 45 46 43 41 41 41 40 38 35 35 31 30 30 29 24 29 26 22 21 19 19 18 16 17 18
36 33 34 38 41 41 45 47 48 48 46 45 45 47 47 47 47 47 45 45 44 41 42 42 41 40 38 36 33 29 27 30 28 23 16 20 19 17 15 16 16 15 15 13
39 38 41 44 46 46 45 46 46 50 50 47 47 49 50 51 48 47 46 45 43 40 41 41 40 39 36 34 30 25 24 23 23 19 17 15 14 14 12 12 13 13 13 12
41 39 41 45 46 46 46 43 45 45 49 50 49 48 51 52 49 48 45 44 41 38 39 40 39 37 34 32 28 25 22 19 17 14 12 9 9 8 9 9 9 10 10 9
43 41 41 40 40 42 44 44 43 43 46 47 49 50 50 49 48 47 46 40 38 35 36 38 37 34 33 30 25 21 18 14 12 9 6 3 4 5 6 5 4 3 3 4
44 43 42 43 41 39 37 38 41 40 39 42 41 44 44 48 46 41 40 40 37 33 32 33 34 32 28 24 21 17 13 11 9 7 6 4 2 1 1 1 1 1 2 3
45 43 41 37 34 32 33 32 33 31 35 38 39 39 40 39 40 39 37 36 34 31 28 27 28 25 21 18 15 13 11 8 7 6 6 7 7 6 6 6 6 5 5 5
39 36 32 28 28 31 29 26 18 23 33 44 42 40 40 38 36 34 33 32 30 27 25 22 21 21 18 13 10 8 6 6 7 9 10 11 11 11 10 10 9 7 7 7
33 30 29 24 23 23 20 17 15 16 30 35 42 40 38 35 34 32 31 29 27 25 23 20 16 15 11 8 7 7 7 10 15 15 14 13 12 12 10 9 9 9 10 10
Wind_Direction
312 314 314 310 310 309 295 294 306 312 318 322 323 332 337 339 340 332 330 332 336 337 338 339 337 331 327 329 328 326 320 311 305 307 306 314 325 337 344 353 1 359 349 339
311 314 313 311 311 305 302 295 286 294 307 317 322 330 332 337 335 328 328 325 324 327 333 334 330 327 325 321 322 322 317 318 317 311 310 317 324 331 338 343 348 355 350 344
309 317 315 312 318 321 317 315 299 308 316 320 321 324 324 326 327 326 326 322 318 318 319 325 328 325 323 322 319 316 312 310 310 310 309 313 320 326 332 335 342 351 352 343
306 312 307 318 320 318 313 315 307 310 311 315 317 320 322 326 326 325 324 321 317 316 316 316 322 323 320 320 319 314 308 305 304 305 306 310 314 321 326 330 337 348 353 350
306 305 307 310 315 315 314 313 315 311 315 319 321 320 318 324 323 320 317 314 314 311 312 310 312 316 317 317 316 314 306 302 300 300 302 305 308 313 319 324 329 336 350 2
310 309 309 322 331 328 322 308 328 325 318 315 317 308 312 318 316 315 315 314 313 312 312 310 306 309 310 310 309 307 309 299 297 296 296 299 303 307 312 318 321 331 338 346
300 303 305 313 314 318 306 311 320 318 315 312 310 311 313 315 313 313 313 312 311 311 311 310 310 308 304 303 303 302 301 302 293 291 292 294 297 301 304 307 313 321 327 332
306 303 305 321 322 311 312 311 311 310 310 310 311 311 312 312 312 312 311 311 311 310 309 311 310 307 303 299 296 298 296 295 295 286 285 288 289 293 296 298 302 308 315 321
299 299 305 308 305 306 308 309 310 310 311 311 309 309 310 311 311 311 311 312 312 310 309 310 310 307 303 299 295 293 291 289 289 286 279 280 282 284 288 290 293 297 302 308
302 303 300 304 306 307 308 308 307 307 308 309 308 310 310 311 312 313 313 314 314 313 311 309 307 304 302 298 294 290 287 287 284 281 279 273 275 278 280 283 285 289 292 297
297 301 300 299 303 305 305 306 305 306 309 310 309 308 310 312 313 315 316 317 316 313 311 308 306 304 299 296 293 289 286 284 283 278 275 271 268 271 273 278 280 283 288 292
297 302 302 303 305 309 305 306 309 309 309 312 312 310 312 313 316 317 318 317 315 313 311 308 305 301 296 296 292 288 284 281 279 279 274 271 265 267 270 274 275 279 283 288
303 303 303 303 307 310 309 309 312 315 316 316 318 317 316 316 318 319 319 321 319 315 311 306 301 297 296 295 292 287 284 282 279 274 277 269 264 261 264 268 272 274 277 280
305 309 307 312 311 314 315 315 316 316 318 319 320 322 321 320 321 324 323 323 321 318 313 309 304 299 298 295 290 287 284 283 281 276 272 271 265 260 259 260 263 268 273 276
316 316 313 315 317 317 318 316 315 316 319 319 321 321 322 322 322 323 324 324 324 319 315 313 308 304 303 298 292 287 285 283 282 278 273 270 266 261 256 257 260 263 268 273
326 328 328 325 324 323 323 323 321 320 321 319 320 321 319 318 320 321 325 327 325 322 320 317 314 309 307 303 298 291 286 283 282 279 273 269 265 260 255 253 256 258 261 264
331 331 330 329 326 323 324 324 322 318 318 318 318 318 317 316 315 318 319 327 332 327 328 325 317 312 307 303 299 293 287 283 282 275 272 272 265 259 253 250 251 254 258 260
322 320 324 321 318 316 314 314 315 314 316 313 313 312 313 313 312 310 309 321 331 326 330 330 316 314 309 303 298 293 287 283 283 275 271 273 264 259 252 247 246 248 255 258
323 319 319 318 315 313 311 309 308 308 305 309 307 307 307 304 304 308 299 309 319 310 311 317 314 317 305 298 300 299 291 284 281 283 271 267 262 259 251 242 242 244 250 253
320 317 319 320 317 316 315 311 305 302 301 302 304 303 300 304 306 309 303 302 309 303 312 310 312 311 310 314 308 305 296 276 277 282 279 265 260 256 248 241 240 244 246 253
318 315 315 316 314 312 312 310 309 298 297 297 301 300 297 299 305 311 299 301 304 312 309 310 315 309 308 307 312 316 305 294 279 286 277 268 258 252 243 236 241 244 248 260
317 317 316 315 315 315 314 312 307 305 297 295 297 300 299 296 302 303 302 293 291 298 305 318 320 314 306 310 310 307 307 303 293 296 286 274 255 237 237 238 241 246 257 265
314 316 316 317 318 317 315 311 309 307 304 300 299 297 294 296 297 293 287 302 293 290 297 316 324 327 312 312 311 310 314 317 318 314 318 337 272 249 245 245 236 251 267 280
312 313 314 315 317 318 316 315 311 310 308 308 308 303 299 293 286 289 290 289 289 284 291 311 320 316 310 306 307 310 316 332 338 347 15 24 9 48 99 99 28 32 20 357
311 313 316 318 320 321 321 320 318 317 312 311 310 308 303 298 279 281 280 281 281 284 283 287 306 309 305 301 300 303 319 331 346 7 30 57 63 60 61 69 70 63 47 31
317 318 319 318 319 321 321 320 309 319 316 298 300 304 295 282 274 277 276 278 277 274 274 277 290 323 324 312 304 301 310 334 10 39 55 56 64 68 69 66 60 48 33 21
317 318 319 315 317 319 315 304 297 282 318 311 278 294 282 269 268 271 274 276 274 274 276 273 267 306 291 287 298 316 346 16 47 58 56 59 60 60 53 50 48 44 40 40